Weather in Gisborne

New Zealand     38°40′04″S   178°01′37″E
temp.,
°C
wind,
m/s
gust,
m/s
humid.,
%
clouds,
%
prec.,
mm/h
press.,
hPa
HPBL,
m
15 may, sat
sat1500:00+10nw7137297 0.0 1009353
03:00+11n4674100 0.0 1007272
06:00+11n3379100 0.8 1004189
09:00+12nw4591100 2.1 1004178
12:00+18nw47790 2.2 1003209
15:00+19w36600 0.0 1004157
18:00+16wnw59700 0.0 1007148
21:00+15nw47745 0.0 1009215
16 may, sun
sun1600:00+14wsw12745 0.0 1012103
03:00+12nw33834 0.0 1013119
06:00+11nw44843 0.0 1014144
09:00+11nnw45775 0.0 1015181
12:00+17n36561 0.0 1013259
15:00+18n475362 0.0 1011193
18:00+16nnw61268100 0.0 1011504
21:00+14nw81478100 0.0 1011521
17 may, mon
mon1700:00+15nw51076100 0.0 1010282
03:00+15nnw4676100 0.0 1008137
06:00+14nw3380100 0.0 1006100
09:00+15nnw237710 0.0 1006133
12:00+18nw476623 0.0 1004277
15:00+18nw58640 0.0 1003252
18:00+16nw46720 0.0 1005169
21:00+13nw58720 0.0 1006252
18 may, tue
tue1800:00+12nw711730 0.0 1007326
03:00+13nw712630 0.0 1007939
06:00+14nw713600 0.0 10071202
09:00+15nw7136273 0.0 10071311
12:00+16nw610679 0.0 10061015
15:00+17nw576572 0.0 1005288
18:00+15sw34690 0.0 1007245
21:00+12wnw45711 0.0 1010160
19 may, wed
wed1900:00+11nw69751 0.0 1010217
03:00+12nw69670 0.0 1009379
06:00+13nw611640 0.0 1009619
09:00+15wnw7116075 0.0 10101078
12:00+18wnw611560 0.0 1008507
15:00+18wsw59601 0.1 1009313
18:00+13sw71179100 1.1 10141114
21:00+13sw587280 0.6 1017806